Regional Weather Roundup
Issued by NWS Goodland, KS

Home | Current Version | Previous Version | Text Only | Print | Product List | Glossary Off
Versions: 1 2 3 4 5 6 7 8 9 10 11 12 13 14 15 16 17 18 19 20 21 22 23 24 25 26 27 28 29 30 31 32 33 34 35 36 37 38 39 40 41 42 43 44 45 46 47 48 49 50

000
ASUS43 KGLD 271008
RWRGLD

GOODLAND FORECAST AREA HOURLY WEATHER ROUNDUP
NATIONAL WEATHER SERVICE GOODLAND KS
300 AM MST TUE JAN 27 2015

...OFFICIAL OBSERVATIONS...

CITY           SKY/WX    TMP DP  RH WIND       PRES   REMARKS
GOODLAND KS    CLEAR     44  29  55 W14       30.11F
HILL CITY KS   CLEAR     35  28  75 SW3       30.08F
IMPERIAL NEB   PTCLDY    33  26  75 CALM      30.08F
MCCOOK NEB     PTCLDY    33  27  78 W5        30.08S
AKRON CO       PTCLDY    41  29  62 W14       30.14S
BURLINGTON CO  CLEAR     41  29  62 W12       30.14F
LIMON CO       CLEAR     29  23  78 N8        30.20F
$$

...UNOFFICIAL OBSERVATIONS...

CITY           SKY/WX    TMP DP  RH WIND       PRES   REMARKS
COLBY KS       CLEAR     37  34  87 W9        30.10S
GOVE KS          N/A     32  32 100 MISG        N/A
NORTON KS      CLEAR     30  25  80 SW8       30.05F
SHARON SPRINGS   N/A     39  30  71 W8          N/A
KIT CARSON CO    N/A     41  27  57 MISG        N/A
$$


USA.gov is the U.S. government's official web portal to all federal, state and local government web resources and services.